Location: Bratsk-Energetik
(56.3300°N, 101.7600°E)
Time: 13:23:44
(UTC+08:00)

ISS - Pass Details

Date: 24 May 2017
Orbit: 401 x 408 km, 51.6° (Epoch: 27 June)

Event Time Altitude Azimuth Distance (km) Brightness Sun altitude
Rises 00:04:30 0° 230° (SW) 2,333 -0.2 -11.7°
Reaches altitude 10° 00:06:49 10° 216° (SW) 1,473 -1.4 -11.8°
Maximum altitude 00:09:33 24° 160° (SSE) 891 -2.7 -11.9°
Drops below altitude 10° 00:12:18 10° 104° (ESE) 1,473 -1.3 -12.0°
Sets 00:14:37 0° 90° (E) 2,339 -0.1 -12.1°
